Time,TemperatureF,DewpointF,PressureIn,WindDirection,WindDirectionDegrees,WindSpeedMPH,WindSpeedGustMPH,Humidity,HourlyPrecipIn,Conditions,Clouds,dailyrainin,SoftwareType,DateUTC
2013-03-06 00:00:00,19.6,15.3,30.38,NNW,334,3.0,7.0,83,0.00,,,0.00,WUHU216DAVISVP2,2013-03-06 06:00:00,
2013-03-06 00:05:00,19.6,15.3,30.38,North,349,2.0,7.0,83,0.00,,,0.00,WUHU216DAVISVP2,2013-03-06 06:05:00,
2013-03-06 00:10:00,19.5,15.2,30.38,NNW,345,2.0,7.0,83,0.00,,,0.00,WUHU216DAVISVP2,2013-03-06 06:10:00,
2013-03-06 00:15:00,19.5,15.2,30.38,North,2,2.0,7.0,83,0.00,,,0.00,WUHU216DAVISVP2,2013-03-06 06:15:00,
2013-03-06 00:20:00,19.4,15.1,30.38,NNW,330,2.0,5.0,83,0.00,,,0.00,WUHU216DAVISVP2,2013-03-06 06:20:00,
2013-03-06 00:25:00,19.4,15.1,30.39,NW,315,2.0,5.0,83,0.00,,,0.00,WUHU216DAVISVP2,2013-03-06 06:25:00,
2013-03-06 00:30:00,19.4,15.1,30.39,NNW,336,0.0,5.0,83,0.00,,,0.00,WUHU216DAVISVP2,2013-03-06 06:30:00,
2013-03-06 00:35:00,19.4,15.1,30.39,NNE,32,1.0,5.0,83,0.00,,,0.00,WUHU216DAVISVP2,2013-03-06 06:35:00,
2013-03-06 00:40:00,19.5,15.4,30.39,NNW,332,1.0,3.0,84,0.00,,,0.00,WUHU216DAVISVP2,2013-03-06 06:40:00,
2013-03-06 00:45:00,19.5,15.4,30.39,West,272,0.0,3.0,84,0.00,,,0.00,WUHU216DAVISVP2,2013-03-06 06:45:00,
2013-03-06 00:50:00,19.4,15.1,30.39,NNW,333,6.0,6.0,83,0.00,,,0.00,WUHU216DAVISVP2,2013-03-06 06:50:00,
2013-03-06 00:55:00,19.3,15.0,30.39,NW,326,2.0,6.0,83,0.00,,,0.00,WUHU216DAVISVP2,2013-03-06 06:55:00,
2013-03-06 01:00:00,19.1,15.0,30.40,NW,321,4.0,6.0,84,0.00,,,0.00,WUHU216DAVISVP2,2013-03-06 07:00:00,
2013-03-06 01:05:00,19.0,14.7,30.40,NNW,329,3.0,6.0,83,0.00,,,0.00,WUHU216DAVISVP2,2013-03-06 07:05:00,
2013-03-06 01:10:00,18.9,14.8,30.40,NW,318,2.0,6.0,84,0.00,,,0.00,WUHU216DAVISVP2,2013-03-06 07:10:00,
2013-03-06 01:15:00,18.8,14.7,30.40,NW,307,2.0,6.0,84,0.00,,,0.00,WUHU216DAVISVP2,2013-03-06 07:15:00,
2013-03-06 01:20:00,18.8,14.8,30.39,WNW,299,4.0,6.0,84,0.00,,,0.00,WUHU216DAVISVP2,2013-03-06 07:20:00,
2013-03-06 01:25:00,18.8,14.7,30.39,NNW,330,1.0,5.0,84,0.00,,,0.00,WUHU216DAVISVP2,2013-03-06 07:25:00,
2013-03-06 01:30:00,18.8,14.8,30.39,NNW,332,2.0,5.0,84,0.00,,,0.00,WUHU216DAVISVP2,2013-03-06 07:30:00,
2013-03-06 01:35:00,18.8,14.8,30.40,NW,326,0.0,5.0,84,0.00,,,0.00,WUHU216DAVISVP2,2013-03-06 07:35:00,
2013-03-06 01:40:00,18.7,14.7,30.40,NW,326,0.0,4.0,84,0.00,,,0.00,WUHU216DAVISVP2,2013-03-06 07:40:00,
2013-03-06 01:45:00,18.6,14.6,30.40,NW,314,3.0,4.0,84,0.00,,,0.00,WUHU216DAVISVP2,2013-03-06 07:45:00,
2013-03-06 01:50:00,18.5,14.4,30.40,NNW,339,2.0,4.0,84,0.00,,,0.00,WUHU216DAVISVP2,2013-03-06 07:50:00,
2013-03-06 01:55:00,18.4,14.6,30.40,NW,311,1.0,4.0,85,0.00,,,0.00,WUHU216DAVISVP2,2013-03-06 07:55:00,
2013-03-06 02:00:00,18.4,14.6,30.40,NW,316,2.0,6.0,85,0.00,,,0.00,WUHU216DAVISVP2,2013-03-06 08:00:00,
2013-03-06 02:05:00,18.3,14.5,30.40,NNW,333,2.0,6.0,85,0.00,,,0.00,WUHU216DAVISVP2,2013-03-06 08:05:00,
2013-03-06 02:10:00,18.3,14.5,30.40,NW,307,2.0,6.0,85,0.00,,,0.00,WUHU216DAVISVP2,2013-03-06 08:10:00,
2013-03-06 02:15:00,18.4,14.6,30.40,NNE,14,0.0,6.0,85,0.00,,,0.00,WUHU216DAVISVP2,2013-03-06 08:15:00,
2013-03-06 02:20:00,18.4,14.6,30.41,NNW,345,0.0,6.0,85,0.00,,,0.00,WUHU216DAVISVP2,2013-03-06 08:20:00,
2013-03-06 02:25:00,18.4,14.6,30.40,NNW,328,3.0,6.0,85,0.00,,,0.00,WUHU216DAVISVP2,2013-03-06 08:25:00,
2013-03-06 02:30:00,18.4,14.6,30.40,WNW,299,0.0,6.0,85,0.00,,,0.00,WUHU216DAVISVP2,2013-03-06 08:30:00,
2013-03-06 02:35:00,18.4,14.6,30.41,North,356,0.0,6.0,85,0.00,,,0.00,WUHU216DAVISVP2,2013-03-06 08:35:00,
2013-03-06 02:40:00,18.4,14.6,30.40,NNW,328,1.0,6.0,85,0.00,,,0.00,WUHU216DAVISVP2,2013-03-06 08:40:00,
2013-03-06 02:45:00,18.5,14.7,30.40,NE,49,1.0,4.0,85,0.00,,,0.00,WUHU216DAVISVP2,2013-03-06 08:45:00,
2013-03-06 02:50:00,18.5,15.0,30.40,NW,316,1.0,3.0,86,0.00,,,0.00,WUHU216DAVISVP2,2013-03-06 08:50:00,
2013-03-06 02:55:00,18.5,15.0,30.40,NNW,345,1.0,3.0,86,0.00,,,0.00,WUHU216DAVISVP2,2013-03-06 08:55:00,
2013-03-06 03:00:00,18.4,14.6,30.39,North,11,1.0,3.0,85,0.00,,,0.00,WUHU216DAVISVP2,2013-03-06 09:00:00,
2013-03-06 03:05:00,18.3,14.5,30.39,NW,315,1.0,3.0,85,0.00,,,0.00,WUHU216DAVISVP2,2013-03-06 09:05:00,
2013-03-06 03:10:00,18.3,14.8,30.39,NNW,329,1.0,3.0,86,0.00,,,0.00,WUHU216DAVISVP2,2013-03-06 09:10:00,
2013-03-06 03:15:00,18.3,14.8,30.39,NNW,332,1.0,4.0,86,0.00,,,0.00,WUHU216DAVISVP2,2013-03-06 09:15:00,
2013-03-06 03:20:00,18.2,14.7,30.39,NNW,327,2.0,4.0,86,0.00,,,0.00,WUHU216DAVISVP2,2013-03-06 09:20:00,
2013-03-06 03:25:00,18.1,14.6,30.39,NW,326,3.0,4.0,86,0.00,,,0.00,WUHU216DAVISVP2,2013-03-06 09:25:00,
2013-03-06 03:30:00,18.1,14.6,30.38,NW,325,0.0,5.0,86,0.00,,,0.00,WUHU216DAVISVP2,2013-03-06 09:30:00,
2013-03-06 03:35:00,18.0,14.5,30.38,NW,314,0.0,5.0,86,0.00,,,0.00,WUHU216DAVISVP2,2013-03-06 09:35:00,
2013-03-06 03:40:00,17.9,14.4,30.38,West,281,1.0,5.0,86,0.00,,,0.00,WUHU216DAVISVP2,2013-03-06 09:40:00,
2013-03-06 03:45:00,17.8,14.3,30.38,North,359,0.0,5.0,86,0.00,,,0.00,WUHU216DAVISVP2,2013-03-06 09:45:00,
2013-03-06 03:50:00,17.6,14.1,30.38,NW,318,2.0,5.0,86,0.00,,,0.00,WUHU216DAVISVP2,2013-03-06 09:50:00,
2013-03-06 03:56:00,17.5,14.3,30.38,NW,323,0.0,5.0,87,0.00,,,0.00,WUHU216DAVISVP2,2013-03-06 09:56:00,
2013-03-06 04:00:00,17.6,14.4,30.39,NW,315,0.0,5.0,87,0.00,,,0.00,WUHU216DAVISVP2,2013-03-06 10:00:00,
2013-03-06 04:01:00,17.6,14.4,30.39,NNE,20,0.0,3.0,87,0.00,,,0.00,WUHU216DAVISVP2,2013-03-06 10:01:00,
2013-03-06 04:05:00,17.5,14.3,30.38,North,8,0.0,3.0,87,0.00,,,0.00,WUHU216DAVISVP2,2013-03-06 10:05:00,
2013-03-06 04:10:00,17.5,14.0,30.39,NNW,330,1.0,2.0,86,0.00,,,0.00,WUHU216DAVISVP2,2013-03-06 10:10:00,
2013-03-06 04:15:00,17.4,14.2,30.39,NNW,338,1.0,3.0,87,0.00,,,0.00,WUHU216DAVISVP2,2013-03-06 10:15:00,
2013-03-06 04:20:00,17.3,14.1,30.39,North,4,0.0,3.0,87,0.00,,,0.00,WUHU216DAVISVP2,2013-03-06 10:20:00,
2013-03-06 04:26:00,17.4,14.2,30.39,North,354,0.0,3.0,87,0.00,,,0.00,WUHU216DAVISVP2,2013-03-06 10:26:00,
2013-03-06 04:30:00,17.3,14.1,30.39,NNE,20,0.0,3.0,87,0.00,,,0.00,WUHU216DAVISVP2,2013-03-06 10:30:00,
2013-03-06 04:36:00,17.2,14.0,30.39,NNE,15,1.0,3.0,87,0.00,,,0.00,WUHU216DAVISVP2,2013-03-06 10:36:00,
2013-03-06 04:40:00,17.0,13.8,30.39,NNE,26,0.0,3.0,87,0.00,,,0.00,WUHU216DAVISVP2,2013-03-06 10:40:00,
2013-03-06 04:45:00,16.9,13.7,30.39,NNE,23,1.0,3.0,87,0.00,,,0.00,WUHU216DAVISVP2,2013-03-06 10:45:00,
2013-03-06 04:51:00,16.8,13.6,30.39,North,354,0.0,3.0,87,0.00,,,0.00,WUHU216DAVISVP2,2013-03-06 10:51:00,
2013-03-06 04:56:00,16.8,13.6,30.39,North,4,0.0,3.0,87,0.00,,,0.00,WUHU216DAVISVP2,2013-03-06 10:56:00,
2013-03-06 05:00:00,16.7,13.5,30.39,NNE,23,0.0,3.0,87,0.00,,,0.00,WUHU216DAVISVP2,2013-03-06 11:00:00,
2013-03-06 05:01:00,16.7,13.5,30.39,NW,323,1.0,3.0,87,0.00,,,0.00,WUHU216DAVISVP2,2013-03-06 11:01:00,
2013-03-06 05:06:00,16.5,13.3,30.39,North,1,1.0,3.0,87,0.00,,,0.00,WUHU216DAVISVP2,2013-03-06 11:06:00,
2013-03-06 05:11:00,16.5,13.6,30.40,NNE,14,0.0,3.0,88,0.00,,,0.00,WUHU216DAVISVP2,2013-03-06 11:11:00,
2013-03-06 05:16:00,16.5,13.5,30.40,NNE,20,0.0,3.0,88,0.00,,,0.00,WUHU216DAVISVP2,2013-03-06 11:16:00,
2013-03-06 05:21:00,16.5,13.5,30.40,NW,304,0.0,2.0,88,0.00,,,0.00,WUHU216DAVISVP2,2013-03-06 11:21:00,
2013-03-06 05:26:00,16.4,13.4,30.40,NW,321,0.0,2.0,88,0.00,,,0.00,WUHU216DAVISVP2,2013-03-06 11:26:00,
2013-03-06 05:30:00,16.4,13.5,30.40,North,0,0.0,2.0,88,0.00,,,0.00,WUHU216DAVISVP2,2013-03-06 11:30:00,
2013-03-06 05:31:00,16.4,13.4,30.40,North,356,0.0,2.0,88,0.00,,,0.00,WUHU216DAVISVP2,2013-03-06 11:31:00,
2013-03-06 05:36:00,16.4,13.4,30.40,NNE,26,0.0,2.0,88,0.00,,,0.00,WUHU216DAVISVP2,2013-03-06 11:36:00,
2013-03-06 05:41:00,16.5,13.6,30.40,NNE,30,0.0,2.0,88,0.00,,,0.00,WUHU216DAVISVP2,2013-03-06 11:41:00,
2013-03-06 05:46:00,16.5,13.5,30.40,NNE,17,0.0,1.0,88,0.00,,,0.00,WUHU216DAVISVP2,2013-03-06 11:46:00,
2013-03-06 05:51:00,16.4,13.4,30.40,NW,307,2.0,3.0,88,0.00,,,0.00,WUHU216DAVISVP2,2013-03-06 11:51:00,
2013-03-06 05:56:00,16.4,13.7,30.40,WNW,297,0.0,3.0,89,0.00,,,0.00,WUHU216DAVISVP2,2013-03-06 11:56:00,
2013-03-06 06:00:00,16.5,13.8,30.40,NW,315,0.0,3.0,89,0.00,,,0.00,WUHU216DAVISVP2,2013-03-06 12:00:00,
2013-03-06 06:01:00,16.5,13.8,30.40,NW,326,0.0,3.0,89,0.00,,,0.00,WUHU216DAVISVP2,2013-03-06 12:01:00,
2013-03-06 06:06:00,16.6,13.9,30.40,East,94,0.0,3.0,89,0.00,,,0.00,WUHU216DAVISVP2,2013-03-06 12:06:00,
2013-03-06 06:11:00,16.7,14.0,30.40,East,94,0.0,3.0,89,0.00,,,0.00,WUHU216DAVISVP2,2013-03-06 12:11:00,
2013-03-06 06:16:00,16.7,14.0,30.40,East,94,0.0,0.0,89,0.00,,,0.00,WUHU216DAVISVP2,2013-03-06 12:16:00,
2013-03-06 06:21:00,16.7,14.0,30.40,East,95,0.0,0.0,89,0.00,,,0.00,WUHU216DAVISVP2,2013-03-06 12:21:00,
2013-03-06 06:26:00,16.7,14.0,30.40,NW,304,0.0,0.0,89,0.00,,,0.00,WUHU216DAVISVP2,2013-03-06 12:26:00,
2013-03-06 06:30:00,16.7,14.0,30.40,North,0,0.0,0.0,89,0.00,,,0.00,WUHU216DAVISVP2,2013-03-06 12:30:00,
2013-03-06 06:31:00,16.7,14.0,30.40,NW,312,0.0,0.0,89,0.00,,,0.00,WUHU216DAVISVP2,2013-03-06 12:31:00,
2013-03-06 06:36:00,16.6,13.9,30.40,WNW,282,0.0,1.0,89,0.00,,,0.00,WUHU216DAVISVP2,2013-03-06 12:36:00,
2013-03-06 06:41:00,16.7,14.0,30.40,NW,309,0.0,1.0,89,0.00,,,0.00,WUHU216DAVISVP2,2013-03-06 12:41:00,
2013-03-06 06:46:00,16.7,14.0,30.40,West,278,0.0,1.0,89,0.00,,,0.00,WUHU216DAVISVP2,2013-03-06 12:46:00,
2013-03-06 06:51:00,16.6,13.9,30.41,WSW,248,0.0,1.0,89,0.00,,,0.00,WUHU216DAVISVP2,2013-03-06 12:51:00,
2013-03-06 06:56:00,16.5,13.8,30.40,NW,314,0.0,1.0,89,0.00,,,0.00,WUHU216DAVISVP2,2013-03-06 12:56:00,
2013-03-06 07:00:00,16.5,13.8,30.40,WNW,293,0.0,1.0,89,0.00,,,0.00,WUHU216DAVISVP2,2013-03-06 13:00:00,
2013-03-06 07:01:00,16.5,13.8,30.40,ENE,74,0.0,1.0,89,0.00,,,0.00,WUHU216DAVISVP2,2013-03-06 13:01:00,
2013-03-06 07:06:00,16.5,13.8,30.40,East,79,0.0,1.0,89,0.00,,,0.00,WUHU216DAVISVP2,2013-03-06 13:06:00,
2013-03-06 07:11:00,16.4,13.7,30.41,East,80,0.0,1.0,89,0.00,,,0.00,WUHU216DAVISVP2,2013-03-06 13:11:00,
2013-03-06 07:16:00,16.4,13.7,30.41,North,349,1.0,1.0,89,0.00,,,0.00,WUHU216DAVISVP2,2013-03-06 13:16:00,
2013-03-06 07:21:00,16.4,13.7,30.40,ENE,74,0.0,1.0,89,0.00,,,0.00,WUHU216DAVISVP2,2013-03-06 13:21:00,
2013-03-06 07:26:00,16.4,13.7,30.40,NNW,342,0.0,1.0,89,0.00,,,0.00,WUHU216DAVISVP2,2013-03-06 13:26:00,
2013-03-06 07:30:00,16.3,13.6,30.40,NW,315,0.0,2.0,89,0.00,,,0.00,WUHU216DAVISVP2,2013-03-06 13:30:00,
2013-03-06 07:31:00,16.3,13.6,30.40,WNW,299,0.0,2.0,89,0.00,,,0.00,WUHU216DAVISVP2,2013-03-06 13:31:00,
2013-03-06 07:36:00,16.2,13.5,30.40,NW,322,0.0,2.0,89,0.00,,,0.00,WUHU216DAVISVP2,2013-03-06 13:36:00,
2013-03-06 07:41:00,16.2,13.5,30.40,NNE,33,1.0,2.0,89,0.00,,,0.00,WUHU216DAVISVP2,2013-03-06 13:41:00,
2013-03-06 07:46:00,16.1,13.4,30.40,North,351,0.0,2.0,89,0.00,,,0.00,WUHU216DAVISVP2,2013-03-06 13:46:00,
2013-03-06 07:51:00,16.1,13.4,30.40,NW,317,0.0,2.0,89,0.00,,,0.00,WUHU216DAVISVP2,2013-03-06 13:51:00,
2013-03-06 07:56:00,16.2,13.5,30.40,NE,41,0.0,2.0,89,0.00,,,0.00,WUHU216DAVISVP2,2013-03-06 13:56:00,
2013-03-06 08:00:00,16.3,13.6,30.40,NE,45,0.0,2.0,89,0.00,,,0.00,WUHU216DAVISVP2,2013-03-06 14:00:00,
2013-03-06 08:01:00,16.3,13.6,30.40,NE,45,1.0,2.0,89,0.00,,,0.00,WUHU216DAVISVP2,2013-03-06 14:01:00,
2013-03-06 08:06:00,16.2,13.5,30.40,NE,46,0.0,2.0,89,0.00,,,0.00,WUHU216DAVISVP2,2013-03-06 14:06:00,
2013-03-06 08:11:00,16.0,13.3,30.41,SE,128,0.0,2.0,89,0.00,,,0.00,WUHU216DAVISVP2,2013-03-06 14:11:00,
2013-03-06 08:16:00,16.2,13.7,30.41,WSW,247,0.0,2.0,90,0.00,,,0.00,WUHU216DAVISVP2,2013-03-06 14:16:00,
2013-03-06 08:21:00,16.4,14.0,30.41,WSW,240,0.0,2.0,90,0.00,,,0.00,WUHU216DAVISVP2,2013-03-06 14:21:00,
2013-03-06 08:26:00,16.6,13.9,30.41,WSW,240,0.0,1.0,89,0.00,,,0.00,WUHU216DAVISVP2,2013-03-06 14:26:00,
2013-03-06 08:30:00,16.8,14.1,30.41,NE,45,0.0,2.0,89,0.00,,,0.00,WUHU216DAVISVP2,2013-03-06 14:30:00,
2013-03-06 08:31:00,16.7,14.0,30.41,ENE,60,0.0,1.0,89,0.00,,,0.00,WUHU216DAVISVP2,2013-03-06 14:31:00,
2013-03-06 08:36:00,16.6,13.6,30.41,ESE,108,0.0,1.0,88,0.00,,,0.00,WUHU216DAVISVP2,2013-03-06 14:36:00,
2013-03-06 08:41:00,16.7,14.0,30.41,ESE,110,0.0,1.0,89,0.00,,,0.00,WUHU216DAVISVP2,2013-03-06 14:41:00,
2013-03-06 08:46:00,16.8,13.9,30.41,ESE,122,1.0,1.0,88,0.00,,,0.00,WUHU216DAVISVP2,2013-03-06 14:46:00,
2013-03-06 08:51:00,16.8,13.8,30.42,ESE,103,0.0,1.0,88,0.00,,,0.00,WUHU216DAVISVP2,2013-03-06 14:51:00,
2013-03-06 08:56:00,16.7,13.7,30.41,ESE,114,0.0,1.0,88,0.00,,,0.00,WUHU216DAVISVP2,2013-03-06 14:56:00,
2013-03-06 09:00:00,16.8,14.1,30.41,ESE,113,0.0,2.0,89,0.00,,,0.00,WUHU216DAVISVP2,2013-03-06 15:00:00,
2013-03-06 09:01:00,16.7,13.7,30.41,ENE,73,2.0,3.0,88,0.00,,,0.00,WUHU216DAVISVP2,2013-03-06 15:01:00,
2013-03-06 09:06:00,16.6,13.6,30.41,East,90,0.0,3.0,88,0.00,,,0.00,WUHU216DAVISVP2,2013-03-06 15:06:00,
2013-03-06 09:11:00,16.7,14.0,30.41,East,91,0.0,3.0,89,0.00,,,0.00,WUHU216DAVISVP2,2013-03-06 15:11:00,
2013-03-06 09:16:00,17.1,14.1,30.41,SSW,193,0.0,3.0,88,0.00,,,0.00,WUHU216DAVISVP2,2013-03-06 15:16:00,
2013-03-06 09:21:00,17.1,14.1,30.41,West,264,0.0,1.0,88,0.00,,,0.00,WUHU216DAVISVP2,2013-03-06 15:21:00,
2013-03-06 09:26:00,17.3,14.4,30.41,East,94,0.0,1.0,88,0.00,,,0.00,WUHU216DAVISVP2,2013-03-06 15:26:00,
2013-03-06 09:30:00,17.5,14.6,30.41,ENE,68,0.0,3.0,88,0.00,,,0.00,WUHU216DAVISVP2,2013-03-06 15:30:00,
2013-03-06 09:31:00,17.5,14.5,30.41,East,86,0.0,1.0,88,0.00,,,0.00,WUHU216DAVISVP2,2013-03-06 15:31:00,
2013-03-06 09:36:00,17.6,14.6,30.41,ESE,116,0.0,1.0,88,0.00,,,0.00,WUHU216DAVISVP2,2013-03-06 15:36:00,
2013-03-06 09:41:00,17.6,14.4,30.41,ESE,122,0.0,1.0,87,0.00,,,0.00,WUHU216DAVISVP2,2013-03-06 15:41:00,
2013-03-06 09:46:00,17.7,14.5,30.41,ESE,104,0.0,1.0,87,0.00,,,0.00,WUHU216DAVISVP2,2013-03-06 15:46:00,
2013-03-06 09:51:00,18.1,14.8,30.41,SE,140,0.0,1.0,87,0.00,,,0.00,WUHU216DAVISVP2,2013-03-06 15:51:00,
2013-03-06 09:56:00,18.4,14.9,30.41,SE,143,0.0,1.0,86,0.00,,,0.00,WUHU216DAVISVP2,2013-03-06 15:56:00,
2013-03-06 10:00:00,18.7,15.2,30.41,East,90,0.0,1.0,86,0.00,,,0.00,WUHU216DAVISVP2,2013-03-06 16:00:00,
2013-03-06 10:01:00,18.8,15.3,30.41,SSE,152,0.0,1.0,86,0.00,,,0.00,WUHU216DAVISVP2,2013-03-06 16:01:00,
2013-03-06 10:06:00,19.0,15.2,30.41,East,94,0.0,1.0,85,0.00,,,0.00,WUHU216DAVISVP2,2013-03-06 16:06:00,
2013-03-06 10:11:00,19.1,15.3,30.41,East,101,1.0,1.0,85,0.00,,,0.00,WUHU216DAVISVP2,2013-03-06 16:11:00,
2013-03-06 10:16:00,19.4,15.6,30.41,SSW,208,0.0,1.0,85,0.00,,,0.00,WUHU216DAVISVP2,2013-03-06 16:16:00,
2013-03-06 10:21:00,19.6,15.5,30.41,SSE,168,0.0,1.0,84,0.00,,,0.00,WUHU216DAVISVP2,2013-03-06 16:21:00,
2013-03-06 10:26:00,19.3,15.2,30.40,East,92,1.0,2.0,84,0.00,,,0.00,WUHU216DAVISVP2,2013-03-06 16:26:00,
2013-03-06 10:30:00,19.1,15.3,30.40,East,90,0.0,2.0,85,0.00,,,0.00,WUHU216DAVISVP2,2013-03-06 16:30:00,
2013-03-06 10:31:00,19.2,15.4,30.40,SSE,156,0.0,2.0,85,0.00,,,0.00,WUHU216DAVISVP2,2013-03-06 16:31:00,
2013-03-06 10:36:00,19.6,15.3,30.40,West,276,0.0,2.0,83,0.00,,,0.00,WUHU216DAVISVP2,2013-03-06 16:36:00,
2013-03-06 10:41:00,19.7,15.6,30.40,South,187,0.0,2.0,84,0.00,,,0.00,WUHU216DAVISVP2,2013-03-06 16:41:00,
2013-03-06 10:46:00,19.9,15.6,30.40,East,79,1.0,2.0,83,0.00,,,0.00,WUHU216DAVISVP2,2013-03-06 16:46:00,
2013-03-06 10:51:00,19.8,15.7,30.40,ESE,104,0.0,2.0,84,0.00,,,0.00,WUHU216DAVISVP2,2013-03-06 16:51:00,
2013-03-06 10:56:00,20.2,16.1,30.40,SSE,160,1.0,2.0,84,0.00,,,0.00,WUHU216DAVISVP2,2013-03-06 16:56:00,
2013-03-06 11:00:00,20.6,16.5,30.40,East,90,0.0,2.0,84,0.00,,,0.00,WUHU216DAVISVP2,2013-03-06 17:00:00,
2013-03-06 11:01:00,20.7,16.3,30.40,ENE,72,2.0,5.0,83,0.00,,,0.00,WUHU216DAVISVP2,2013-03-06 17:01:00,
2013-03-06 11:06:00,20.5,16.1,30.40,SE,127,1.0,5.0,83,0.00,,,0.00,WUHU216DAVISVP2,2013-03-06 17:06:00,
2013-03-06 11:11:00,20.2,15.8,30.40,NNE,31,0.0,5.0,83,0.00,,,0.00,WUHU216DAVISVP2,2013-03-06 17:11:00,
2013-03-06 11:16:00,20.5,16.1,30.39,ESE,110,2.0,5.0,83,0.00,,,0.00,WUHU216DAVISVP2,2013-03-06 17:16:00,
2013-03-06 11:21:00,21.0,16.6,30.40,SSE,164,1.0,3.0,83,0.00,,,0.00,WUHU216DAVISVP2,2013-03-06 17:21:00,
2013-03-06 11:26:00,21.3,16.7,30.39,SSE,151,1.0,3.0,82,0.00,,,0.00,WUHU216DAVISVP2,2013-03-06 17:26:00,
2013-03-06 11:30:00,21.6,17.0,30.39,ESE,113,1.0,5.0,82,0.00,,,0.00,WUHU216DAVISVP2,2013-03-06 17:30:00,
2013-03-06 11:31:00,21.6,16.9,30.39,South,186,1.0,3.0,82,0.00,,,0.00,WUHU216DAVISVP2,2013-03-06 17:31:00,
2013-03-06 11:36:00,22.0,17.1,30.39,East,82,0.0,3.0,81,0.00,,,0.00,WUHU216DAVISVP2,2013-03-06 17:36:00,
2013-03-06 11:41:00,22.0,16.8,30.39,ESE,121,1.0,3.0,80,0.00,,,0.00,WUHU216DAVISVP2,2013-03-06 17:41:00,
2013-03-06 11:46:00,22.2,17.0,30.39,ESE,120,1.0,3.0,80,0.00,,,0.00,WUHU216DAVISVP2,2013-03-06 17:46:00,
2013-03-06 11:51:00,22.6,17.1,30.39,WSW,248,0.0,3.0,79,0.00,,,0.00,WUHU216DAVISVP2,2013-03-06 17:51:00,
2013-03-06 11:56:00,22.5,17.3,30.39,SSE,148,0.0,2.0,80,0.00,,,0.00,WUHU216DAVISVP2,2013-03-06 17:56:00,
2013-03-06 12:00:00,22.9,17.7,30.39,SSE,158,0.0,3.0,80,0.00,,,0.00,WUHU216DAVISVP2,2013-03-06 18:00:00,
2013-03-06 12:01:00,22.9,17.4,30.39,ESE,113,2.0,3.0,79,0.00,,,0.00,WUHU216DAVISVP2,2013-03-06 18:01:00,
2013-03-06 12:06:00,22.6,17.4,30.38,SE,127,1.0,3.0,80,0.00,,,0.00,WUHU216DAVISVP2,2013-03-06 18:06:00,
2013-03-06 12:11:00,22.9,17.4,30.39,East,86,0.0,3.0,79,0.00,,,0.00,WUHU216DAVISVP2,2013-03-06 18:11:00,
2013-03-06 12:16:00,23.0,17.5,30.38,SSE,157,0.0,3.0,79,0.00,,,0.00,WUHU216DAVISVP2,2013-03-06 18:16:00,
2013-03-06 12:21:00,22.3,16.8,30.38,ENE,69,0.0,3.0,79,0.00,,,0.00,WUHU216DAVISVP2,2013-03-06 18:21:00,
2013-03-06 12:26:00,22.3,17.1,30.38,South,171,1.0,3.0,80,0.00,,,0.00,WUHU216DAVISVP2,2013-03-06 18:26:00,
2013-03-06 12:30:00,22.3,17.1,30.38,East,90,1.0,3.0,80,0.00,,,0.00,WUHU216DAVISVP2,2013-03-06 18:30:00,
2013-03-06 12:31:00,22.2,17.0,30.38,ESE,105,0.0,3.0,80,0.00,,,0.00,WUHU216DAVISVP2,2013-03-06 18:31:00,
2013-03-06 12:36:00,21.9,17.0,30.38,SE,143,0.0,3.0,81,0.00,,,0.00,WUHU216DAVISVP2,2013-03-06 18:36:00,
2013-03-06 12:41:00,22.0,17.1,30.38,East,91,0.0,3.0,81,0.00,,,0.00,WUHU216DAVISVP2,2013-03-06 18:41:00,
2013-03-06 12:46:00,22.2,17.3,30.38,SSE,155,0.0,3.0,81,0.00,,,0.00,WUHU216DAVISVP2,2013-03-06 18:46:00,
2013-03-06 12:51:00,22.8,17.8,30.38,SE,136,0.0,3.0,81,0.00,,,0.00,WUHU216DAVISVP2,2013-03-06 18:51:00,
2013-03-06 12:56:00,23.3,18.0,30.37,SW,233,0.0,2.0,80,0.00,,,0.00,WUHU216DAVISVP2,2013-03-06 18:56:00,
2013-03-06 13:00:00,23.5,17.9,30.37,East,90,0.0,3.0,79,0.00,,,0.00,WUHU216DAVISVP2,2013-03-06 19:00:00,
2013-03-06 13:01:00,23.4,17.9,30.37,SE,125,0.0,2.0,79,0.00,,,0.00,WUHU216DAVISVP2,2013-03-06 19:01:00,
2013-03-06 13:06:00,23.4,18.1,30.36,SSE,164,0.0,2.0,80,0.00,,,0.00,WUHU216DAVISVP2,2013-03-06 19:06:00,
2013-03-06 13:11:00,23.5,18.2,30.36,ESE,115,1.0,3.0,80,0.00,,,0.00,WUHU216DAVISVP2,2013-03-06 19:11:00,
2013-03-06 13:16:00,23.4,17.9,30.36,ESE,121,1.0,3.0,79,0.00,,,0.00,WUHU216DAVISVP2,2013-03-06 19:16:00,
2013-03-06 13:21:00,23.8,18.5,30.36,SSW,205,0.0,3.0,80,0.00,,,0.00,WUHU216DAVISVP2,2013-03-06 19:21:00,
2013-03-06 13:26:00,24.2,18.1,30.36,SSW,211,1.0,3.0,77,0.00,,,0.00,WUHU216DAVISVP2,2013-03-06 19:26:00,
2013-03-06 13:30:00,24.1,17.9,30.36,ESE,113,0.0,3.0,77,0.00,,,0.00,WUHU216DAVISVP2,2013-03-06 19:30:00,
2013-03-06 13:31:00,24.0,17.9,30.35,SSE,155,0.0,3.0,77,0.00,,,0.00,WUHU216DAVISVP2,2013-03-06 19:31:00,
2013-03-06 13:36:00,24.3,18.4,30.35,SSE,155,0.0,2.0,78,0.00,,,0.00,WUHU216DAVISVP2,2013-03-06 19:36:00,
2013-03-06 13:41:00,24.5,18.3,30.35,SSE,151,1.0,3.0,77,0.00,,,0.00,WUHU216DAVISVP2,2013-03-06 19:41:00,
2013-03-06 13:46:00,24.5,18.6,30.34,South,174,0.0,3.0,78,0.00,,,0.00,WUHU216DAVISVP2,2013-03-06 19:46:00,
2013-03-06 13:51:00,24.4,18.5,30.34,East,90,2.0,3.0,78,0.00,,,0.00,WUHU216DAVISVP2,2013-03-06 19:51:00,
2013-03-06 13:56:00,24.4,18.5,30.34,SSE,157,1.0,3.0,78,0.00,,,0.00,WUHU216DAVISVP2,2013-03-06 19:56:00,
2013-03-06 14:00:00,24.3,18.7,30.33,ESE,113,0.0,3.0,79,0.00,,,0.00,WUHU216DAVISVP2,2013-03-06 20:00:00,
2013-03-06 14:01:00,24.2,18.6,30.33,SE,126,0.0,3.0,79,0.00,,,0.00,WUHU216DAVISVP2,2013-03-06 20:01:00,
2013-03-06 14:06:00,24.5,18.9,30.33,ESE,105,2.0,3.0,79,0.00,,,0.00,WUHU216DAVISVP2,2013-03-06 20:06:00,
2013-03-06 14:11:00,24.7,18.8,30.33,SSE,147,0.0,4.0,78,0.00,,,0.00,WUHU216DAVISVP2,2013-03-06 20:11:00,
2013-03-06 14:16:00,25.3,19.4,30.33,SE,128,1.0,4.0,78,0.00,,,0.00,WUHU216DAVISVP2,2013-03-06 20:16:00,
2013-03-06 14:21:00,25.4,19.5,30.33,South,169,0.0,4.0,78,0.00,,,0.00,WUHU216DAVISVP2,2013-03-06 20:21:00,
2013-03-06 14:26:00,25.5,19.3,30.33,East,91,0.0,2.0,77,0.00,,,0.00,WUHU216DAVISVP2,2013-03-06 20:26:00,
2013-03-06 14:30:00,25.5,19.6,30.32,SE,135,0.0,4.0,78,0.00,,,0.00,WUHU216DAVISVP2,2013-03-06 20:30:00,
2013-03-06 14:31:00,25.5,19.3,30.33,East,98,1.0,3.0,77,0.00,,,0.00,WUHU216DAVISVP2,2013-03-06 20:31:00,
2013-03-06 14:36:00,25.6,19.4,30.32,East,96,1.0,3.0,77,0.00,,,0.00,WUHU216DAVISVP2,2013-03-06 20:36:00,
2013-03-06 14:41:00,25.7,19.5,30.32,East,95,4.0,4.0,77,0.00,,,0.00,WUHU216DAVISVP2,2013-03-06 20:41:00,
2013-03-06 14:46:00,25.5,19.6,30.31,East,101,3.0,4.0,78,0.00,,,0.00,WUHU216DAVISVP2,2013-03-06 20:46:00,
2013-03-06 14:51:00,25.3,19.4,30.31,SE,127,3.0,5.0,78,0.00,,,0.00,WUHU216DAVISVP2,2013-03-06 20:51:00,
2013-03-06 14:56:00,25.6,19.4,30.31,East,90,2.0,5.0,77,0.00,,,0.00,WUHU216DAVISVP2,2013-03-06 20:56:00,
2013-03-06 15:00:00,25.6,19.4,30.31,East,90,1.0,5.0,77,0.00,,,0.00,WUHU216DAVISVP2,2013-03-06 21:00:00,
2013-03-06 15:01:00,25.5,19.3,30.31,ESE,110,3.0,5.0,77,0.00,,,0.00,WUHU216DAVISVP2,2013-03-06 21:01:00,
2013-03-06 15:06:00,25.5,19.6,30.31,ESE,106,3.0,5.0,78,0.00,,,0.00,WUHU216DAVISVP2,2013-03-06 21:06:00,
2013-03-06 15:11:00,25.7,19.8,30.31,ESE,105,1.0,4.0,78,0.00,,,0.00,WUHU216DAVISVP2,2013-03-06 21:11:00,
2013-03-06 15:16:00,26.1,20.2,30.31,ESE,115,0.0,4.0,78,0.00,,,0.00,WUHU216DAVISVP2,2013-03-06 21:16:00,
2013-03-06 15:21:00,26.4,20.2,30.31,SE,132,2.0,4.0,77,0.00,,,0.00,WUHU216DAVISVP2,2013-03-06 21:21:00,
2013-03-06 15:26:00,26.3,19.8,30.31,East,97,2.0,5.0,76,0.00,,,0.00,WUHU216DAVISVP2,2013-03-06 21:26:00,
2013-03-06 15:30:00,26.4,20.5,30.30,East,90,1.0,5.0,78,0.00,,,0.00,WUHU216DAVISVP2,2013-03-06 21:30:00,
2013-03-06 15:31:00,26.4,20.2,30.30,ESE,117,1.0,5.0,77,0.00,,,0.00,WUHU216DAVISVP2,2013-03-06 21:31:00,
2013-03-06 15:36:00,26.2,20.0,30.30,East,98,3.0,5.0,77,0.00,,,0.00,WUHU216DAVISVP2,2013-03-06 21:36:00,
2013-03-06 15:41:00,26.1,19.9,30.30,ENE,63,4.0,5.0,77,0.00,,,0.00,WUHU216DAVISVP2,2013-03-06 21:41:00,
2013-03-06 15:46:00,26.1,19.9,30.30,ESE,103,3.0,6.0,77,0.00,,,0.00,WUHU216DAVISVP2,2013-03-06 21:46:00,
2013-03-06 15:51:00,25.9,19.7,30.30,SE,124,1.0,6.0,77,0.00,,,0.00,WUHU216DAVISVP2,2013-03-06 21:51:00,
2013-03-06 15:56:00,26.2,20.0,30.30,ENE,59,5.0,6.0,77,0.00,,,0.00,WUHU216DAVISVP2,2013-03-06 21:56:00,
2013-03-06 16:00:00,26.3,19.8,30.30,ESE,113,2.0,6.0,76,0.00,,,0.00,WUHU216DAVISVP2,2013-03-06 22:00:00,
2013-03-06 16:01:00,26.3,19.8,30.30,East,99,3.0,6.0,76,0.00,,,0.00,WUHU216DAVISVP2,2013-03-06 22:01:00,
2013-03-06 16:06:00,26.6,20.4,30.29,SE,124,1.0,6.0,77,0.00,,,0.00,WUHU216DAVISVP2,2013-03-06 22:06:00,
2013-03-06 16:11:00,26.2,20.0,30.29,East,91,2.0,6.0,77,0.00,,,0.00,WUHU216DAVISVP2,2013-03-06 22:11:00,
2013-03-06 16:16:00,25.9,20.3,30.29,ESE,112,2.0,8.0,79,0.00,,,0.00,WUHU216DAVISVP2,2013-03-06 22:16:00,
2013-03-06 16:21:00,26.4,20.8,30.29,East,95,1.0,8.0,79,0.00,,,0.00,WUHU216DAVISVP2,2013-03-06 22:21:00,
2013-03-06 16:26:00,26.7,20.5,30.29,East,87,4.0,8.0,77,0.00,,,0.00,WUHU216DAVISVP2,2013-03-06 22:26:00,
2013-03-06 16:30:00,26.7,20.5,30.28,ESE,113,2.0,8.0,77,0.00,,,0.00,WUHU216DAVISVP2,2013-03-06 22:30:00,
2013-03-06 16:31:00,26.7,20.5,30.28,SE,124,3.0,8.0,77,0.00,,,0.00,WUHU216DAVISVP2,2013-03-06 22:31:00,
2013-03-06 16:36:00,26.5,20.6,30.28,ESE,104,4.0,6.0,78,0.00,,,0.00,WUHU216DAVISVP2,2013-03-06 22:36:00,
2013-03-06 16:41:00,26.3,20.7,30.28,ESE,120,2.0,6.0,79,0.00,,,0.00,WUHU216DAVISVP2,2013-03-06 22:41:00,
2013-03-06 16:46:00,25.9,20.3,30.28,ESE,102,2.0,7.0,79,0.00,,,0.00,WUHU216DAVISVP2,2013-03-06 22:46:00,
2013-03-06 16:51:00,25.7,20.1,30.28,ESE,110,4.0,7.0,79,0.00,,,0.00,WUHU216DAVISVP2,2013-03-06 22:51:00,
2013-03-06 16:56:00,26.0,20.4,30.28,East,100,1.0,7.0,79,0.00,,,0.00,WUHU216DAVISVP2,2013-03-06 22:56:00,
2013-03-06 17:00:00,26.1,20.5,30.28,ESE,113,2.0,7.0,79,0.00,,,0.00,WUHU216DAVISVP2,2013-03-06 23:00:00,
2013-03-06 17:01:00,26.1,20.5,30.28,ESE,118,3.0,7.0,79,0.00,,,0.00,WUHU216DAVISVP2,2013-03-06 23:01:00,
2013-03-06 17:06:00,25.7,20.4,30.28,ESE,110,2.0,6.0,80,0.00,,,0.00,WUHU216DAVISVP2,2013-03-06 23:06:00,
2013-03-06 17:11:00,25.6,20.6,30.27,ESE,110,1.0,6.0,81,0.00,,,0.00,WUHU216DAVISVP2,2013-03-06 23:11:00,
2013-03-06 17:16:00,25.5,20.5,30.27,East,96,1.0,6.0,81,0.00,,,0.00,WUHU216DAVISVP2,2013-03-06 23:16:00,
2013-03-06 17:21:00,25.5,20.5,30.27,East,94,2.0,5.0,81,0.00,,,0.00,WUHU216DAVISVP2,2013-03-06 23:21:00,
2013-03-06 17:26:00,25.1,20.4,30.27,ESE,122,2.0,4.0,82,0.00,,,0.00,WUHU216DAVISVP2,2013-03-06 23:26:00,
2013-03-06 17:30:00,25.1,20.4,30.27,ESE,113,1.0,6.0,82,0.00,,,0.00,WUHU216DAVISVP2,2013-03-06 23:30:00,
2013-03-06 17:31:00,25.1,20.4,30.27,ESE,110,2.0,5.0,82,0.00,,,0.00,WUHU216DAVISVP2,2013-03-06 23:31:00,
2013-03-06 17:36:00,25.1,20.4,30.27,East,92,2.0,5.0,82,0.00,,,0.00,WUHU216DAVISVP2,2013-03-06 23:36:00,
2013-03-06 17:41:00,25.0,20.5,30.27,ESE,109,0.0,5.0,83,0.00,,,0.00,WUHU216DAVISVP2,2013-03-06 23:41:00,
2013-03-06 17:46:00,24.9,20.5,30.26,ESE,107,1.0,5.0,83,0.00,,,0.00,WUHU216DAVISVP2,2013-03-06 23:46:00,
2013-03-06 17:51:00,24.8,20.1,30.26,ESE,106,1.0,5.0,82,0.00,,,0.00,WUHU216DAVISVP2,2013-03-06 23:51:00,
2013-03-06 17:56:00,24.7,20.3,30.26,ESE,106,2.0,5.0,83,0.00,,,0.00,WUHU216DAVISVP2,2013-03-06 23:56:00,
2013-03-06 18:00:00,24.5,20.1,30.26,ESE,113,1.0,5.0,83,0.00,,,0.00,WUHU216DAVISVP2,2013-03-07 00:00:00,
2013-03-06 18:01:00,24.4,20.0,30.26,SE,126,0.0,5.0,83,0.00,,,0.00,WUHU216DAVISVP2,2013-03-07 00:01:00,
2013-03-06 18:06:00,24.3,20.1,30.26,East,100,1.0,5.0,84,0.00,,,0.00,WUHU216DAVISVP2,2013-03-07 00:06:00,
2013-03-06 18:11:00,24.2,20.0,30.25,ESE,103,2.0,5.0,84,0.00,,,0.00,WUHU216DAVISVP2,2013-03-07 00:11:00,
2013-03-06 18:16:00,24.0,19.8,30.25,ESE,102,1.0,5.0,84,0.00,,,0.00,WUHU216DAVISVP2,2013-03-07 00:16:00,
2013-03-06 18:21:00,23.9,19.7,30.25,SE,126,3.0,5.0,84,0.00,,,0.00,WUHU216DAVISVP2,2013-03-07 00:21:00,
2013-03-06 18:26:00,23.7,19.8,30.25,East,101,2.0,5.0,85,0.00,,,0.00,WUHU216DAVISVP2,2013-03-07 00:26:00,
2013-03-06 18:30:00,23.7,19.9,30.25,ESE,113,1.0,5.0,85,0.00,,,0.00,WUHU216DAVISVP2,2013-03-07 00:30:00,
2013-03-06 18:31:00,23.6,19.7,30.25,SE,143,1.0,5.0,85,0.00,,,0.00,WUHU216DAVISVP2,2013-03-07 00:31:00,
2013-03-06 18:36:00,23.5,19.6,30.25,ESE,121,1.0,5.0,85,0.00,,,0.00,WUHU216DAVISVP2,2013-03-07 00:36:00,
2013-03-06 18:41:00,23.3,19.4,30.25,ESE,110,2.0,5.0,85,0.00,,,0.00,WUHU216DAVISVP2,2013-03-07 00:41:00,
2013-03-06 18:46:00,23.1,19.2,30.25,ESE,115,2.0,6.0,85,0.00,,,0.00,WUHU216DAVISVP2,2013-03-07 00:46:00,
2013-03-06 18:51:00,22.9,19.1,30.25,ENE,69,1.0,6.0,85,0.00,,,0.00,WUHU216DAVISVP2,2013-03-07 00:51:00,
2013-03-06 18:56:00,22.8,19.2,30.25,ESE,102,1.0,6.0,86,0.00,,,0.00,WUHU216DAVISVP2,2013-03-07 00:56:00,
2013-03-06 19:00:00,22.6,19.0,30.25,ESE,113,1.0,6.0,86,0.00,,,0.00,WUHU216DAVISVP2,2013-03-07 01:00:00,
2013-03-06 19:01:00,22.6,19.0,30.25,SE,139,1.0,6.0,86,0.00,,,0.00,WUHU216DAVISVP2,2013-03-07 01:01:00,
2013-03-06 19:06:00,22.5,18.9,30.25,ESE,110,2.0,4.0,86,0.00,,,0.00,WUHU216DAVISVP2,2013-03-07 01:06:00,
2013-03-06 19:11:00,22.4,18.8,30.25,SE,127,1.0,4.0,86,0.00,,,0.00,WUHU216DAVISVP2,2013-03-07 01:11:00,
2013-03-06 19:16:00,22.3,19.0,30.25,ESE,107,2.0,4.0,87,0.00,,,0.00,WUHU216DAVISVP2,2013-03-07 01:16:00,
2013-03-06 19:21:00,22.2,18.9,30.25,SE,126,2.0,4.0,87,0.00,,,0.00,WUHU216DAVISVP2,2013-03-07 01:21:00,
2013-03-06 19:26:00,22.2,18.9,30.25,SE,130,0.0,3.0,87,0.00,,,0.00,WUHU216DAVISVP2,2013-03-07 01:26:00,
2013-03-06 19:30:00,22.1,18.8,30.25,ESE,113,1.0,4.0,87,0.00,,,0.00,WUHU216DAVISVP2,2013-03-07 01:30:00,
2013-03-06 19:31:00,22.1,18.8,30.25,East,96,2.0,3.0,87,0.00,,,0.00,WUHU216DAVISVP2,2013-03-07 01:31:00,
2013-03-06 19:36:00,22.0,18.7,30.25,ESE,103,0.0,3.0,87,0.00,,,0.00,WUHU216DAVISVP2,2013-03-07 01:36:00,
2013-03-06 19:41:00,21.9,18.6,30.25,SE,129,1.0,3.0,87,0.00,,,0.00,WUHU216DAVISVP2,2013-03-07 01:41:00,
2013-03-06 19:46:00,21.8,18.5,30.25,ESE,120,1.0,3.0,87,0.00,,,0.00,WUHU216DAVISVP2,2013-03-07 01:46:00,
2013-03-06 19:51:00,21.7,18.4,30.25,ESE,119,0.0,3.0,87,0.00,,,0.00,WUHU216DAVISVP2,2013-03-07 01:51:00,
2013-03-06 19:56:00,21.6,18.6,30.25,SE,136,0.0,3.0,88,0.00,,,0.00,WUHU216DAVISVP2,2013-03-07 01:56:00,
2013-03-06 20:00:00,21.5,18.5,30.25,ESE,113,0.0,3.0,88,0.00,,,0.00,WUHU216DAVISVP2,2013-03-07 02:00:00,
2013-03-06 20:01:00,21.5,18.5,30.25,ESE,107,0.0,2.0,88,0.00,,,0.00,WUHU216DAVISVP2,2013-03-07 02:01:00,
2013-03-06 20:06:00,21.5,18.5,30.25,SE,129,1.0,2.0,88,0.00,,,0.00,WUHU216DAVISVP2,2013-03-07 02:06:00,
2013-03-06 20:11:00,21.5,18.5,30.25,ESE,109,1.0,3.0,88,0.00,,,0.00,WUHU216DAVISVP2,2013-03-07 02:11:00,
2013-03-06 20:16:00,21.5,18.5,30.24,ESE,117,2.0,3.0,88,0.00,,,0.00,WUHU216DAVISVP2,2013-03-07 02:16:00,
2013-03-06 20:21:00,21.5,18.5,30.24,ESE,117,1.0,3.0,88,0.00,,,0.00,WUHU216DAVISVP2,2013-03-07 02:21:00,
2013-03-06 20:26:00,21.5,18.5,30.24,ESE,112,2.0,4.0,88,0.00,,,0.00,WUHU216DAVISVP2,2013-03-07 02:26:00,
2013-03-06 20:30:00,21.5,18.5,30.24,SE,135,1.0,4.0,88,0.00,,,0.00,WUHU216DAVISVP2,2013-03-07 02:30:00,
2013-03-06 20:31:00,21.5,18.5,30.24,East,98,1.0,4.0,88,0.00,,,0.00,WUHU216DAVISVP2,2013-03-07 02:31:00,
2013-03-06 20:36:00,21.5,18.5,30.24,East,99,2.0,5.0,88,0.00,,,0.00,WUHU216DAVISVP2,2013-03-07 02:36:00,
2013-03-06 20:41:00,21.4,18.4,30.24,ESE,110,2.0,5.0,88,0.00,,,0.00,WUHU216DAVISVP2,2013-03-07 02:41:00,
2013-03-06 20:46:00,21.3,18.3,30.25,SE,125,1.0,5.0,88,0.00,,,0.00,WUHU216DAVISVP2,2013-03-07 02:46:00,
2013-03-06 20:51:00,21.2,18.2,30.25,ESE,116,1.0,5.0,88,0.00,,,0.00,WUHU216DAVISVP2,2013-03-07 02:51:00,
2013-03-06 20:56:00,21.1,18.3,30.25,SE,124,1.0,4.0,89,0.00,,,0.00,WUHU216DAVISVP2,2013-03-07 02:56:00,
2013-03-06 21:00:00,21.1,18.4,30.25,ESE,113,1.0,5.0,89,0.00,,,0.00,WUHU216DAVISVP2,2013-03-07 03:00:00,
2013-03-06 21:01:00,21.0,18.2,30.24,SE,128,1.0,4.0,89,0.00,,,0.00,WUHU216DAVISVP2,2013-03-07 03:01:00,
2013-03-06 21:06:00,20.9,18.1,30.25,ESE,102,1.0,4.0,89,0.00,,,0.00,WUHU216DAVISVP2,2013-03-07 03:06:00,
2013-03-06 21:11:00,20.8,18.0,30.25,East,101,1.0,4.0,89,0.00,,,0.00,WUHU216DAVISVP2,2013-03-07 03:11:00,
2013-03-06 21:16:00,20.8,18.0,30.24,ESE,110,4.0,4.0,89,0.00,,,0.00,WUHU216DAVISVP2,2013-03-07 03:16:00,
2013-03-06 21:21:00,20.7,17.9,30.25,ESE,116,2.0,4.0,89,0.00,,,0.00,WUHU216DAVISVP2,2013-03-07 03:21:00,
2013-03-06 21:26:00,20.5,17.7,30.25,ESE,103,0.0,5.0,89,0.00,,,0.00,WUHU216DAVISVP2,2013-03-07 03:26:00,
2013-03-06 21:30:00,20.5,17.8,30.25,ESE,113,1.0,5.0,89,0.00,,,0.00,WUHU216DAVISVP2,2013-03-07 03:30:00,
2013-03-06 21:31:00,20.5,17.7,30.25,ESE,115,1.0,5.0,89,0.00,,,0.00,WUHU216DAVISVP2,2013-03-07 03:31:00,
2013-03-06 21:36:00,20.3,17.5,30.24,East,82,2.0,5.0,89,0.00,,,0.00,WUHU216DAVISVP2,2013-03-07 03:36:00,
2013-03-06 21:41:00,20.3,17.8,30.25,ESE,109,2.0,5.0,90,0.00,,,0.00,WUHU216DAVISVP2,2013-03-07 03:41:00,
2013-03-06 21:46:00,20.2,17.7,30.25,ESE,109,3.0,3.0,90,0.00,,,0.00,WUHU216DAVISVP2,2013-03-07 03:46:00,
2013-03-06 21:51:00,20.1,17.6,30.26,ESE,110,1.0,3.0,90,0.00,,,0.00,WUHU216DAVISVP2,2013-03-07 03:51:00,
2013-03-06 21:56:00,20.1,17.6,30.26,SE,125,1.0,3.0,90,0.00,,,0.00,WUHU216DAVISVP2,2013-03-07 03:56:00,
2013-03-06 22:00:00,20.0,17.5,30.26,ESE,113,1.0,3.0,90,0.00,,,0.00,WUHU216DAVISVP2,2013-03-07 04:00:00,
2013-03-06 22:01:00,20.0,17.5,30.27,East,91,2.0,4.0,90,0.00,,,0.00,WUHU216DAVISVP2,2013-03-07 04:01:00,
2013-03-06 22:06:00,20.0,17.5,30.27,ESE,120,0.0,4.0,90,0.00,,,0.00,WUHU216DAVISVP2,2013-03-07 04:06:00,
2013-03-06 22:11:00,19.8,17.3,30.26,ESE,110,1.0,4.0,90,0.00,,,0.00,WUHU216DAVISVP2,2013-03-07 04:11:00,
2013-03-06 22:16:00,19.7,17.2,30.26,ESE,111,1.0,4.0,90,0.00,,,0.00,WUHU216DAVISVP2,2013-03-07 04:16:00,
2013-03-06 22:21:00,19.7,17.2,30.26,East,98,1.0,3.0,90,0.00,,,0.00,WUHU216DAVISVP2,2013-03-07 04:21:00,
2013-03-06 22:26:00,19.6,17.1,30.26,ESE,114,1.0,3.0,90,0.00,,,0.00,WUHU216DAVISVP2,2013-03-07 04:26:00,
2013-03-06 22:30:00,19.6,17.1,30.26,ESE,113,1.0,4.0,90,0.00,,,0.00,WUHU216DAVISVP2,2013-03-07 04:30:00,
2013-03-06 22:31:00,19.5,17.0,30.26,SE,141,0.0,3.0,90,0.00,,,0.00,WUHU216DAVISVP2,2013-03-07 04:31:00,
2013-03-06 22:36:00,19.5,17.0,30.26,ENE,75,1.0,5.0,90,0.00,,,0.00,WUHU216DAVISVP2,2013-03-07 04:36:00,
2013-03-06 22:41:00,19.4,16.9,30.26,ESE,117,1.0,5.0,90,0.00,,,0.00,WUHU216DAVISVP2,2013-03-07 04:41:00,
2013-03-06 22:46:00,19.4,16.9,30.27,East,101,2.0,5.0,90,0.00,,,0.00,WUHU216DAVISVP2,2013-03-07 04:46:00,
2013-03-06 22:51:00,19.4,16.9,30.27,East,96,1.0,5.0,90,0.00,,,0.00,WUHU216DAVISVP2,2013-03-07 04:51:00,
2013-03-06 22:56:00,19.3,16.8,30.27,ESE,116,1.0,4.0,90,0.00,,,0.00,WUHU216DAVISVP2,2013-03-07 04:56:00,
2013-03-06 23:00:00,19.2,17.0,30.27,ENE,74,1.0,4.0,91,0.00,,,0.00,WUHU216DAVISVP2,2013-03-07 05:00:00,
2013-03-06 23:05:00,19.2,17.0,30.27,SE,142,1.0,5.0,91,0.00,,,0.00,WUHU216DAVISVP2,2013-03-07 05:05:00,
2013-03-06 23:10:00,19.1,16.9,30.28,SE,138,0.0,5.0,91,0.00,,,0.00,WUHU216DAVISVP2,2013-03-07 05:10:00,
2013-03-06 23:15:00,19.1,16.9,30.27,SE,137,0.0,5.0,91,0.00,,,0.00,WUHU216DAVISVP2,2013-03-07 05:15:00,
2013-03-06 23:20:00,19.0,16.8,30.27,ESE,113,1.0,5.0,91,0.00,,,0.00,WUHU216DAVISVP2,2013-03-07 05:20:00,
2013-03-06 23:25:00,18.9,16.7,30.26,ESE,106,2.0,3.0,91,0.00,,,0.00,WUHU216DAVISVP2,2013-03-07 05:25:00,
2013-03-06 23:30:00,18.9,16.7,30.26,ESE,103,1.0,3.0,91,0.00,,,0.00,WUHU216DAVISVP2,2013-03-07 05:30:00,
2013-03-06 23:35:00,18.8,16.6,30.26,ESE,111,2.0,4.0,91,0.00,,,0.00,WUHU216DAVISVP2,2013-03-07 05:35:00,
2013-03-06 23:40:00,18.7,16.5,30.26,SE,135,2.0,4.0,91,0.00,,,0.00,WUHU216DAVISVP2,2013-03-07 05:40:00,
2013-03-06 23:45:00,18.6,16.4,30.25,SE,124,1.0,4.0,91,0.00,,,0.00,WUHU216DAVISVP2,2013-03-07 05:45:00,
2013-03-06 23:50:00,18.5,16.3,30.26,SE,143,1.0,4.0,91,0.00,,,0.00,WUHU216DAVISVP2,2013-03-07 05:50:00,
2013-03-06 23:55:00,18.4,16.2,30.24,ESE,109,1.0,5.0,91,0.00,,,0.00,WUHU216DAVISVP2,2013-03-07 05:55:00,